Location: Boiro
(42.6475°N, 8.8834°W)
Time: 01:22:36
(UTC+01:00)

Explorer 7 - Pass Details

Date: 01 December 2021
Orbit: 483 x 674 km, 50.3° (Epoch: 23 January)

Event Time Altitude Azimuth Distance (km) Brightness Sun altitude
Rises 11:00:52 0° 286° (WNW) 2,692 9.9 17.5°
Reaches altitude 10° 11:03:25 10° 300° (WNW) 1,767 8.9 17.7°
Maximum altitude 11:06:48 26° 358° (N) 1,035 7.9 18.1°
Drops below altitude 10° 11:10:04 10° 56° (ENE) 1,698 9.4 18.4°
Sets 11:12:29 0° 70° (ENE) 2,563 10.4 18.7°
